Dewpoint
18 16 17 20 22 17 16 14 14 17 19 27 28 27 31 31 27 25 35 42 38 37 41 45 50 51 52 53 54 55 55 57 58 59 61 61 60 62 63 63 63 64 66 66 67 67 68 68 69 69 69 70 70 69 69 69 69 70 70 70 70 70 69 69 69 70 71 71 70 70 69 69 69 69 68 66 64 63 61 58 57 56 55 56 57 57 57
15 15 16 20 15 21 31 32 33 26 21 23 26 31 36 29 36 35 36 41 37 37 40 45 49 52 53 54 55 56 56 57 59 59 60 60 61 62 62 63 63 64 65 66 67 68 68 69 69 69 69 69 69 69 69 69 70 70 70 70 70 69 69 69 70 71 71 70 69 69 69 69 69 69 67 65 63 62 60 59 59 59 58 58 57 56 57
17 16 30 28 27 28 30 32 33 34 36 36 26 37 41 43 40 41 39 39 38 40 44 48 53 53 54 54 55 55 56 58 59 59 59 60 60 62 62 63 63 64 66 67 68 68 69 69 69 69 69 69 69 69 69 69 70 70 70 69 69 69 69 70 70 70 70 69 69 69 69 70 70 69 67 65 63 61 60 59 59 60 57 56 56 57 57
13 14 22 28 34 33 32 34 35 32 34 34 36 36 40 35 36 41 39 38 37 42 50 52 53 54 54 54 54 56 57 59 60 59 58 59 61 62 63 63 64 65 67 67 68 68 69 69 69 69 69 69 69 69 69 70 70 70 69 69 69 69 70 70 70 70 70 69 69 69 70 70 70 69 66 64 62 61 59 59 60 56 55 56 56 57 57
18 16 33 34 33 30 27 30 32 35 36 39 38 40 48 45 40 36 34 33 42 46 52 51 53 53 53 54 55 56 58 59 59 58 58 59 61 62 63 64 65 66 67 67 68 68 69 69 69 70 69 69 69 69 69 70 70 69 69 69 69 69 70 70 70 70 70 69 69 69 70 69 69 68 65 63 62 60 59 59 58 56 56 55 56 56 56
17 19 28 39 30 28 30 35 34 37 39 39 38 39 41 43 39 39 38 39 47 49 51 51 53 53 53 54 56 57 58 59 58 58 58 59 61 62 63 65 66 66 67 68 68 69 69 70 70 70 71 70 70 70 70 70 69 68 68 68 69 70 70 70 70 70 70 70 69 69 69 69 68 67 65 63 63 62 61 60 58 57 55 56 56 56 57
18 27 35 33 28 30 37 40 41 40 38 40 41 45 46 47 48 46 44 47 48 51 51 53 54 55 57 57 58 58 59 59 58 58 59 60 61 63 65 66 66 67 68 68 69 69 70 71 71 71 71 71 71 70 69 68 68 68 69 69 69 70 69 70 69 69 69 69 68 68 68 68 68 67 66 65 64 63 61 59 58 56 55 55 56 59 59
26 27 31 22 28 36 39 41 44 48 46 46 39 34 41 49 48 47 47 48 51 53 55 56 57 57 57 58 59 58 58 58 58 59 60 61 64 65 66 67 67 68 69 69 69 70 72 72 71 72 72 72 71 70 69 69 69 69 69 69 69 69 69 69 69 69 69 69 69 68 68 68 68 68 68 66 65 64 62 61 60 59 57 57 58 58 59
23 24 31 23 34 35 38 40 41 38 38 38 36 31 33 44 49 48 50 52 54 55 56 56 56 57 56 56 57 59 59 60 61 60 61 63 65 66 67 68 69 70 70 70 70 72 71 71 71 72 72 72 71 70 70 69 69 70 70 69 69 69 69 68 68 68 68 68 69 68 68 67 67 67 67 67 67 65 61 60 59 58 57 57 60 58 59
36 31 30 32 33 31 37 41 42 42 40 41 40 39 37 45 49 50 52 53 54 55 56 56 56 55 54 53 55 58 61 62 63 64 65 66 66 67 68 70 70 70 70 71 72 71 70 71 71 72 72 72 71 71 70 70 70 69 69 69 69 70 69 68 68 68 68 68 68 68 68 67 67 67 68 68 68 65 60 59 59 59 59 59 60 60 60
30 32 30 29 32 36 41 38 38 40 44 43 45 36 31 41 50 51 53 54 55 55 55 55 55 52 50 51 54 57 60 62 63 64 65 66 67 69 69 70 70 70 70 71 72 71 70 70 71 72 72 72 71 71 71 70 69 69 68 68 69 69 69 69 68 68 68 68 68 68 68 67 68 68 68 68 69 65 62 60 60 60 62 60 59 59 60
39 34 31 28 35 34 37 39 40 40 45 42 36 30 32 39 48 53 53 54 55 55 55 55 53 50 48 50 53 57 60 62 63 64 65 66 68 69 71 71 71 71 72 72 70 69 69 70 71 72 72 71 71 71 70 69 68 68 68 68 68 69 69 69 69 69 69 69 68 68 67 67 68 67 68 68 66 63 61 60 60 60 63 60 59 59 59
44 40 33 34 36 42 46 47 46 42 45 37 34 31 36 45 49 53 54 54 55 55 55 54 52 53 53 54 55 58 61 62 63 64 66 67 69 70 71 71 73 71 71 70 69 69 69 70 71 72 72 71 71 70 69 68 68 68 69 69 69 69 69 69 69 69 69 69 69 68 68 68 68 69 68 66 64 62 60 60 60 60 60 59 59 59 59
36 37 34 34 37 40 39 39 41 45 41 34 33 40 46 50 52 54 54 54 55 55 55 54 53 53 55 57 58 60 61 62 62 63 64 66 68 70 72 73 72 70 69 69 69 69 70 71 72 72 71 71 70 70 68 68 68 69 70 70 70 70 70 70 70 70 70 69 69 69 69 69 69 68 67 66 64 61 60 59 59 59 59 61 59 58 58
38 39 35 33 30 37 45 44 40 46 37 38 41 46 52 52 53 54 54 54 55 54 53 56 56 56 56 58 59 61 61 61 62 62 64 66 68 70 71 70 70 69 68 69 69 70 70 71 71 71 71 71 71 71 69 70 70 70 70 70 70 70 70 70 70 70 70 71 70 70 69 69 68 67 66 66 64 62 60 59 59 58 58 58 59 59 58
33 35 33 33 37 42 44 47 42 41 45 46 48 51 50 54 54 54 55 55 55 53 54 56 56 57 58 59 60 60 61 61 61 62 63 66 68 70 69 68 69 70 69 69 70 70 70 71 71 71 71 71 71 70 70 70 71 71 70 70 70 71 71 70 70 70 71 71 70 70 70 68 67 66 65 64 64 63 61 60 59 59 58 58 59 59 59
38 38 39 42 45 45 47 48 47 47 48 52 52 52 52 53 54 56 55 55 55 55 56 56 56 57 58 59 59 59 59 60 61 62 63 67 69 68 67 68 70 70 69 69 69 70 70 70 70 70 71 71 72 70 70 71 71 71 70 70 71 70 70 70 70 70 70 70 70 70 69 68 67 65 64 63 62 61 62 60 60 59 59 59 59 59 59
46 46 42 45 48 49 50 51 51 50 52 53 55 53 53 54 55 56 55 55 55 56 57 55 56 56 57 58 58 59 60 61 62 64 65 67 68 67 68 69 70 70 69 69 69 69 69 70 70 71 70 71 71 70 70 72 70 70 70 70 70 69 69 70 70 70 69 69 69 69 68 67 67 65 64 63 62 60 60 59 59 59 59 59 59 60 59
41 38 47 47 46 48 51 51 53 53 53 55 55 54 55 56 56 56 57 56 56 56 56 56 55 55 57 58 59 61 61 62 63 64 65 66 67 67 68 69 70 69 69 68 69 69 69 69 70 70 70 70 70 70 72 71 70 70 71 71 71 70 69 69 69 69 69 69 69 69 67 66 66 66 65 63 63 63 61 59 59 60 60 62 61 61 61
42 42 46 47 48 50 51 52 52 52 54 56 57 57 56 57 56 56 57 59 57 57 56 55 55 55 58 59 61 61 62 62 63 64 65 66 66 67 69 70 69 68 68 68 68 68 69 69 69 70 70 70 71 71 71 71 70 71 72 71 69 68 68 69 69 69 70 72 70 69 69 66 65 64 64 64 62 62 62 60 59 59 60 61 61 61 61
47 48 48 49 49 49 51 50 52 54 55 57 57 57 57 56 56 57 58 59 57 56 55 55 56 57 59 61 61 61 62 63 64 64 65 66 66 67 68 68 68 68 68 68 68 68 68 68 69 69 70 70 70 70 70 70 70 71 72 72 70 68 68 68 69 71 70 72 70 69 69 69 67 66 65 64 64 63 63 63 61 60 60 59 62 61 62
44 43 45 49 46 46 48 49 50 52 54 58 58 56 56 57 56 57 57 58 58 57 55 56 57 58 60 61 62 62 63 63 64 65 65 66 66 67 67 68 67 68 68 68 68 68 68 67 68 69 69 69 70 70 70 70 70 71 73 72 70 68 68 68 69 72 70 70 70 70 69 68 67 63 61 57 59 63 63 65 59 54 58 62 60 56 54
44 47 48 51 51 51 50 50 52 53 55 58 58 56 56 57 58 58 57 57 57 56 58 59 58 60 62 62 62 62 63 64 65 65 65 65 66 66 67 67 67 67 67 69 68 68 67 68 68 69 68 68 69 70 70 70 70 71 72 71 70 69 69 69 70 70 70 68 68 69 69 69 67 66 65 60 46 48 54 61 55 47 44 46 49 54 56
48 49 49 51 53 50 51 51 52 54 57 59 59 57 57 56 56 57 57 56 56 56 58 60 61 62 62 62 63 63 64 64 64 65 65 66 66 66 67 66 67 67 68 68 68 68 67 68 68 68 69 68 69 70 69 69 69 69 70 70 69 69 69 69 71 71 69 69 69 67 67 67 65 65 64 63 62 52 46 51 52 48 45 43 44 47 50
48 49 51 53 54 54 54 54 56 57 59 62 60 57 57 56 56 57 56 57 57 57 59 60 62 63 63 63 63 64 64 64 65 65 66 67 66 66 66 66 67 67 67 67 67 67 67 67 67 68 68 68 68 68 68 68 68 68 68 69 68 68 69 70 72 72 69 70 70 68 67 65 64 63 62 62 61 62 63 49 48 47 45 44 43 44 45
53 53 55 58 59 58 57 54 52 53 56 59 60 60 63 63 58 58 56 57 58 59 60 61 62 63 64 64 64 64 64 64 66 66 65 66 66 66 66 66 67 67 66 66 66 66 67 68 67 67 68 67 68 68 68 68 68 68 68 68 68 68 69 69 68 68 68 68 69 68 68 67 65 63 64 63 62 63 63 65 66 58 48 46 45 44 46
49 56 59 54 54 54 54 52 51 53 57 59 60 59 60 63 64 59 57 58 62 62 61 62 63 64 64 65 65 64 64 66 66 65 65 65 65 65 66 66 66 67 67 66 66 68 69 70 68 67 67 67 68 69 68 68 68 66 66 66 67 72 72 70 67 68 68 68 68 67 67 68 68 68 66 66 66 66 66 64 64 64 65 63 49 46 56
50 53 58 54 52 52 53 54 57 59 59 59 61 60 60 58 56 57 58 60 62 63 63 63 63 64 64 64 65 65 66 65 64 64 65 65 65 65 66 66 67 67 67 67 68 70 70 68 67 66 63 63 68 67 67 67 67 67 67 67 69 69 69 69 68 67 67 67 67 67 67 67 68 69 70 69 68 68 67 66 66 65 66 65 60 53 46
47 49 57 59 58 58 60 61 60 59 58 59 61 60 57 57 57 57 58 60 62 63 63 63 64 64 64 64 65 65 65 64 64 64 64 65 66 66 66 67 67 67 67 66 62 61 61 62 63 62 62 61 68 68 67 67 67 67 67 67 67 67 67 67 67 68 68 67 67 68 70 70 69 68 70 70 70 68 68 67 68 68 67 66 62 62 59
52 56 57 58 60 61 61 59 59 59 59 59 60 59 59 57 56 57 59 61 62 62 62 63 63 64 64 64 65 65 64 63 64 64 64 65 65 66 66 65 63 62 60 58 58 58 59 60 61 62 61 60 66 68 68 68 68 67 67 67 66 66 66 66 66 66 67 68 70 69 70 69 68 68 69 68 68 68 67 67 68 67 66 65 65 64 63
50 52 52 53 56 58 59 59 59 60 59 59 60 60 61 59 57 57 60 62 63 63 63 63 63 64 64 64 65 64 64 64 64 64 64 64 65 65 64 61 59 58 57 56 56 56 58 58 59 59 59 61 64 64 63 63 63 64 64 64 66 67 68 68 68 68 68 67 67 66 66 64 66 68 68 67 67 66 65 65 65 65 64 63 62 61 61
47 46 47 49 51 54 57 59 59 59 59 59 60 59 60 59 57 58 60 62 63 63 63 63 64 64 64 65 64 64 64 64 64 64 64 64 64 64 62 60 59 61 56 56 56 58 58 59 59 59 59 62 63 63 62 62 62 62 64 69 64 66 68 68 68 68 67 67 65 64 66 64 65 65 66 65 64 64 64 63 63 63 62 61 60 59 59
44 43 43 44 45 48 53 56 58 57 58 58 58 59 61 61 59 60 61 63 63 64 63 63 64 64 64 64 64 64 64 64 64 63 63 64 64 63 63 62 60 58 57 57 57 58 58 58 58 57 59 59 60 61 61 61 61 61 62 65 66 67 67 65 65 65 66 65 64 63 63 63 63 63 64 64 63 63 62 62 61 61 61 61 60 60 58
43 43 43 44 44 44 46 47 49 54 57 59 59 60 61 62 62 62 63 64 64 63 63 64 64 64 64 64 64 63 63 63 63 63 63 63 63 63 64 63 60 58 58 58 56 56 57 57 58 58 59 59 60 60 61 61 61 61 61 61 61 62 63 65 65 64 63 63 63 64 63 63 62 62 63 63 63 62 62 61 61 60 59 59 60 61 57
46 46 46 47 48 50 52 53 53 55 57 57 58 60 61 62 63 63 64 64 64 64 64 65 64 64 64 64 63 63 63 63 63 63 63 63 63 63 63 61 60 59 58 58 57 56 57 58 59 60 61 62 62 61 60 60 60 61 62 63 64 62 63 64 63 63 62 62 62 61 62 62 62 63 62 61 60 61 60 61 60 59 59 59 59 60 58
45 48 50 52 53 54 55 57 58 58 58 58 58 59 60 62 63 63 64 64 64 64 63 64 65 64 64 63 63 63 63 63 63 63 63 63 63 63 62 59 58 57 58 59 61 58 57 58 63 63 60 61 62 63 62 60 60 61 62 62 63 63 64 63 63 63 63 62 62 63 63 63 62 61 60 59 59 59 58 58 58 58 58 57 58 58 57
46 46 47 50 52 54 57 59 60 60 60 60 60 60 61 62 64 64 64 64 63 63 64 64 64 64 63 63 63 63 63 63 63 63 63 63 62 62 60 59 58 58 59 56 58 59 58 62 65 64 62 62 63 65 66 65 61 61 61 60 60 61 60 60 61 61 61 62 61 61 61 60 60 59 59 58 58 58 57 57 57 57 56 57 56 56 56
51 48 49 52 54 56 58 59 61 62 61 62 62 62 61 62 64 64 64 64 64 65 65 65 65 64 64 64 63 63 63 63 63 63 63 62 61 61 60 59 59 60 58 56 59 61 62 65 64 60 58 61 63 66 67 65 63 59 59 59 60 61 61 60 61 61 60 60 61 59 59 59 58 58 58 58 57 57 57 57 57 56 56 56 55 55 55
52 54 56 57 59 60 60 61 62 62 62 62 61 61 62 63 64 64 64 64 64 64 64 64 64 64 64 63 63 63 63 63 63 62 61 61 61 61 60 60 60 60 61 61 60 62 66 62 63 60 61 62 63 66 66 65 63 59 60 60 60 60 60 60 60 60 60 60 59 59 58 58 58 57 57 57 57 57 58 57 56 56 55 55 55 54 54
58 57 58 60 60 61 61 61 62 62 63 63 62 62 62 63 64 64 64 64 64 64 64 64 64 64 64 63 63 63 64 63 62 61 60 60 62 60 59 59 59 59 63 66 64 65 65 64 60 60 61 61 64 66 66 64 62 61 59 59 60 60 60 61 60 60 61 60 60 60 58 58 58 57 57 57 56 56 56 55 55 55 54 54 54 54 54
60 60 61 60 61 61 61 61 61 62 62 63 62 62 63 63 64 63 63 63 64 64 65 64 64 64 64 64 64 63 63 62 61 60 60 60 59 59 58 58 59 61 66 64 64 66 65 63 62 62 63 63 65 67 64 63 60 58 58 59 59 59 59 59 59 59 59 59 59 58 58 58 57 56 56 55 55 55 55 55 54 54 54 53 53 53 53
60 60 61 61 61 61 61 61 62 61 62 62 63 63 63 64 64 63 64 64 64 64 65 66 67 65 65 65 64 64 62 60 60 59 60 60 59 58 58 57 60 64 67 67 66 64 63 64 65 66 63 63 64 64 63 62 58 59 59 60 60 61 60 60 59 59 59 58 58 57 57 57 56 56 56 55 55 55 54 54 54 53 53 53 53 52 52
60 60 60 61 61 61 62 62 62 62 62 63 63 63 63 64 65 65 65 63 63 64 64 65 66 66 65 65 64 62 61 60 59 59 59 59 59 58 58 58 61 65 67 66 62 61 63 63 63 63 65 65 65 64 62 59 59 59 60 60 61 60 60 59 58 58 57 57 57 56 56 56 55 55 54 54 54 54 54 53 53 53 53 52 52 52 52
60 60 60 61 62 62 62 62 62 62 62 63 63 63 64 64 66 65 63 63 63 64 64 64 65 64 65 65 63 62 61 60 59 59 59 59 59 60 60 61 63 66 65 63 62 62 63 63 63 65 66 65 64 63 60 59 59 59 59 59 59 59 59 58 58 58 58 58 57 57 57 56 55 54 54 53 53 53 53 53 53 52 52 52 52 52 51
59 60 61 62 62 63 62 62 62 62 63 63 64 65 64 65 66 65 64 63 63 64 65 64 64 65 66 65 64 63 62 62 60 60 58 58 57 58 61 66 65 63 63 64 63 63 63 65 66 66 66 65 63 61 58 58 58 59 59 59 59 59 59 58 58 58 58 58 57 57 56 55 55 54 54 54 54 53 52 52 52 52 52 51 51 51 51
59 60 61 64 63 63 62 63 63 63 63 64 64 66 66 65 66 65 64 63 63 63 64 64 64 65 66 66 65 64 63 63 62 62 63 61 58 58 63 66 63 63 66 66 63 63 65 68 67 66 65 64 62 59 59 60 59 58 58 58 58 59 58 58 58 58 57 57 56 56 55 54 54 53 53 53 53 52 53 52 51 51 51 51 51 50 50
60 61 61 62 62 63 63 63 64 63 63 63 63 64 66 66 66 66 65 64 64 65 65 65 65 65 66 66 65 64 64 63 63 64 63 64 65 63 66 65 64 66 66 63 63 64 66 66 66 65 64 63 61 57 57 57 57 56 56 57 56 56 57 56 57 57 57 57 56 56 55 54 53 52 53 52 52 51 51 51 50 50 50 49 49 49 49
60 61 62 62 62 62 62 63 63 63 63 63 63 64 65 66 66 66 66 66 65 66 66 65 66 66 66 66 66 65 65 63 61 62 63 62 63 64 64 62 63 67 65 66 66 67 67 67 66 65 64 61 59 56 56 55 55 55 55 55 55 55 55 55 55 55 55 54 53 52 52 51 51 51 51 50 50 50 49 49 49 48 48 48 47 47 47
61 62 63 63 62 61 61 62 63 64 63 63 64 64 65 65 65 65 65 65 65 65 65 65 65 65 66 66 66 66 66 65 63 62 63 63 64 63 62 65 67 66 64 63 64 65 67 66 65 64 62 59 55 55 55 55 56 56 55 55 55 55 54 54 54 53 53 52 52 52 51 50 50 49 49 49 49 49 48 48 47 47 47 46 46 46 46
61 62 62 63 62 62 61 61 61 61 61 64 63 64 65 65 64 63 65 65 64 65 65 64 64 65 65 66 67 67 67 66 65 64 64 64 63 62 63 64 64 65 64 63 64 64 66 65 64 63 59 56 55 56 56 55 56 56 56 56 55 55 55 54 54 54 53 52 51 51 50 50 50 50 50 49 48 48 47 46 46 47 46 45 45 44 44
61 61 61 63 63 63 63 62 61 62 62 63 63 65 66 65 64 64 64 64 64 64 64 64 64 64 65 66 67 68 67 65 64 65 63 63 63 64 64 63 64 65 64 64 63 62 61 59 58 59 57 56 56 56 56 56 57 56 56 55 55 54 53 53 52 51 50 50 49 49 48 48 47 47 47 47 47 46 46 45 44 44 44 43 43 43 43
61 62 62 62 63 62 62 62 61 62 63 64 64 65 66 65 65 64 64 65 64 64 64 63 63 64 65 66 67 67 67 65 64 64 64 63 63 62 63 65 63 63 63 62 61 59 57 58 60 59 58 56 56 57 58 58 56 55 55 56 55 54 54 53 52 51 51 49 48 47 47 46 46 46 46 46 45 45 45 44 44 43 43 43 42 43 42